Flag for Japan Weather past 2 weeks in Kumamoto, Japan

Now
80 °F

Warm.


Feels Like: 86 °F
Forecast: 73 / 93 °F
Wind: 3 mph from Southwest

Location: Kumamoto

Current Time: Jul 31, 2015 at 1:22:00 AM

Latest Report: Jul 31, 2015 at 12:00 AM


Visibility: N/A

Pressure: 29.87 "Hg

Humidity: 86%

Dew point: 76 °F

Location of KumamotoLocation

Historic Weather in Kumamoto — Graph

°F

Kumamoto temperature yesterday

Maximum temperature yesterday: 93 °F (at 3:00 PM)
Minimum temperature yesterday: 80 °F (at 11:00 PM)
Average temperature yesterday: 84 °F

Past Weeks' High & Low Weather Summary

 TemperatureHumidityPressure
High94 °F (Jul 25, 3:00 PM)100% (Jul 19, 4:00 AM)29.93 "Hg (Jul 19, 4:00 AM)
Low68 °F (Jul 18, 6:00 AM)47% (Jul 24, 4:00 PM)29.35 "Hg (Jul 16, 5:00 PM)
Average81 °F79%29.79 "Hg
* Reported Midnight between Jul 15 and Jul 16 — Midnight between Jul 30 and Jul 31, Kumamoto, Weather by CustomWeather, © 2015

Note: Actual official high and low records may vary slightly from our data, if they occured in-between our weather recording intervals... More about our weather records

Advertising

Kumamoto weather history for previous 24 hours

 ConditionsComfort  
Time TempWeatherWind HumidityBarometerVisibility
12:00 AM
Fri, Jul 31
80 °FWarm.3 mph86%29.87 "HgN/A
11:00 PM
Thu, Jul 30
80 °FWarm.6 mph89%29.87 "HgN/A
10:00 PM81 °FWarm.8 mph83%29.87 "HgN/A
9:00 PM82 °FPassing clouds.6 mph80%29.85 "Hg9 mi
8:00 PM83 °FWarm.8 mph79%29.84 "HgN/A
7:00 PM85 °FWarm.9 mph74%29.83 "HgN/A
6:00 PM87 °FPassing clouds.10 mph66%29.82 "Hg12 mi
5:00 PM90 °FHot.10 mph63%29.81 "HgN/A
4:00 PM91 °FHot.9 mph58%29.82 "HgN/A
3:00 PM93 °FPassing clouds.10 mph59%29.83 "Hg12 mi
2:00 PM92 °FHot.9 mph60%29.84 "HgN/A
1:00 PM90 °FHot.6 mph58%29.86 "HgN/A
12:00 PM90 °FScattered clouds.5 mph62%29.88 "Hg9 mi
11:00 AM88 °FHot.6 mph62%29.89 "HgN/A
10:00 AM85 °FWarm.5 mph71%29.89 "HgN/A
9:00 AM84 °FPartly sunny.3 mph74%29.89 "Hg6 mi
8:00 AM82 °FWarm.2 mph82%29.89 "HgN/A
7:00 AM81 °FWarm.3 mph83%29.88 "HgN/A
6:00 AM80 °FOvercast.3 mph87%29.88 "Hg6 mi
5:00 AM80 °FWarm.5 mph89%29.87 "HgN/A
4:00 AM80 °FWarm.5 mph89%29.87 "HgN/A
3:00 AM80 °FOvercast.2 mph89%29.87 "Hg6 mi
2:00 AM81 °FWarm.5 mph89%29.87 "HgN/A
1:00 AM81 °FWarm.6 mph90%29.87 "HgN/A
Weather by CustomWeather, © 2015

See weather overviewHow to use our weather pages